Flag for U.S.A. Weather past 2 weeks in Jefferson City, Missouri, U.S.A.

Now
67 °F

Sunny.


Feels Like: 67 °F
Forecast: 57 / 71 °F
Wind: 3 mph from Northwest

Location: Jefferson City Memorial Airport

Current Time: Apr 18, 2015 at 7:23:54 PM

Latest Report: Apr 18, 2015 at 6:53 PM


Visibility: 10 mi

Pressure: 29.83 "Hg

Humidity: 79%

Dew point: 60 °F

Location of Jefferson CityLocation

Historic Weather in Jefferson City — Graph

°F

Jefferson City temperature yesterday

Maximum temperature yesterday: 80 °F (at 3:53 PM)
Minimum temperature yesterday: 52 °F (at 5:53 AM)
Average temperature yesterday: 68 °F

Past Weeks' High & Low Weather Summary

 TemperatureHumidityPressure
High82 °F (Apr 9, 2:53 PM)97% (Apr 17, 5:53 AM)30.40 "Hg (Apr 17, 5:53 AM)
Low28 °F (Apr 4, 6:53 AM)16% (Apr 14, 1:53 PM)29.56 "Hg (Apr 9, 3:53 PM)
Average61 °F59%29.99 "Hg
* Reported Apr 3 5:53 PM — Apr 18 5:53 PM, Jefferson City, Weather by CustomWeather, © 2015

Note: Actual official high and low records may vary slightly from our data, if they occured in-between our weather recording intervals... More about our weather records

Advertising

Jefferson City weather history for previous 24 hours

 ConditionsComfort  
Time TempWeatherWind HumidityBarometerVisibility
5:53 PM
Sat, Apr 18
67 °FSunny.6 mph79%29.83 "Hg10 mi
4:53 PM66 °FSunny.7 mph84%29.84 "Hg10 mi
3:53 PM66 °FLight rain. Mostly cloudy.8 mph78%29.88 "Hg8 mi
2:53 PM76 °FPassing clouds.9 mph52%29.86 "Hg10 mi
1:53 PM74 °FPassing clouds.15 mph56%29.88 "Hg10 mi
12:53 PM74 °FPassing clouds.15 mph60%29.88 "Hg10 mi
11:53 AM74 °FPassing clouds.16 mph62%29.91 "Hg10 mi
10:53 AM72 °FScattered clouds.14 mph68%29.93 "Hg10 mi
9:53 AM69 °FSunny.9 mph76%29.93 "Hg10 mi
8:53 AM65 °FSunny.8 mph85%29.91 "Hg10 mi
7:53 AM64 °FSunny.5 mph84%29.92 "Hg10 mi
6:53 AM61 °FPassing clouds.6 mph87%29.93 "Hg10 mi
5:53 AM62 °FClear.6 mph83%29.92 "Hg10 mi
4:53 AM64 °FClear.7 mph75%29.93 "Hg10 mi
3:53 AM64 °FClear.5 mph75%29.93 "Hg10 mi
2:53 AM67 °FPassing clouds.7 mph68%29.93 "Hg10 mi
1:53 AM65 °FClear.8 mph76%29.94 "Hg10 mi
12:53 AM67 °FClear.6 mph71%29.94 "Hg10 mi
11:53 PM
Fri, Apr 17
69 °FPassing clouds.7 mph63%29.94 "Hg10 mi
10:53 PM72 °FOvercast.9 mph55%29.94 "Hg10 mi
9:53 PM74 °FClear.9 mph52%29.93 "Hg10 mi
8:53 PM75 °FPassing clouds.9 mph50%29.93 "Hg10 mi
7:53 PM77 °FSunny.9 mph45%29.92 "Hg10 mi
Weather by CustomWeather, © 2015

See weather overviewHow to use our weather pages